KD8BMB Weather Reports


Display with metric or nautical units.
time (UTC)temp
F
wind
direction
speed
MPH
gust
MPH
rain 1hr
in
rain 24hr
in
rain mn
in
humidity
%
barometer
mb
20260503005758 44 287 0.0 0.0 0.00 0.00 0.00 55 1015.0
20260503005256 44 287 0.0 0.0 0.00 0.00 0.00 53 1014.9
20260503004751 45 294 0.0 0.0 0.00 0.00 0.00 53 1014.6
20260503004250 45 270 0.0 0.0 0.00 0.00 0.00 53 1015.0
20260503003746 46 236 2.0 2.0 0.00 0.00 0.00 50 1014.8
20260503003244 46 278 1.0 1.0 0.00 0.00 0.00 50 1014.8
20260503002740 46 272 0.0 0.0 0.00 0.00 0.00 50 1015.2
20260503002237 47 257 0.0 1.0 0.00 0.00 0.00 47 1014.9
20260503001733 47 286 0.0 0.0 0.00 0.00 0.00 47 1015.0
20260503001230 47 301 0.0 0.0 0.00 0.00 0.00 49 1014.9
20260503000728 48 283 0.0 0.0 0.00 0.00 0.00 47 1014.6
20260503000226 48 251 0.0 0.0 0.00 0.00 0.00 45 1014.7
20260502235722 49 269 0.0 0.0 0.00 0.00 0.00 48 1015.0
20260502235220 49 250 0.0 0.0 0.00 0.00 0.00 44 1014.9
20260502234716 49 249 0.0 0.0 0.00 0.00 0.00 45 1015.0
20260502234213 48 256 0.0 0.0 0.00 0.00 0.00 45 1014.9
20260502233709 48 263 0.0 0.0 0.00 0.00 0.00 45 1014.9
20260502233206 48 290 0.0 1.0 0.00 0.00 0.00 44 1015.0
20260502232701 48 246 1.0 1.0 0.00 0.00 0.00 44 1015.1
20260502232159 49 242 2.0 2.0 0.00 0.00 0.00 43 1015.1
20260502231655 49 216 2.0 2.0 0.00 0.00 0.00 43 1015.1
20260502231153 50 231 3.0 5.0 0.00 0.00 0.00 42 1015.0
20260502230652 50 273 1.0 2.0 0.00 0.00 0.00 42 1015.0
20260502230150 50 265 2.0 3.0 0.00 0.00 0.00 41 1015.0
20260502225645 50 271 2.0 3.0 0.00 0.00 0.00 42 1015.4
20260502225143 50 251 4.0 6.0 0.00 0.00 0.00 40 1015.3
20260502224638 50 271 4.0 7.0 0.00 0.00 0.00 40 1015.4
20260502224136 50 262 4.0 5.0 0.00 0.00 0.00 40 1015.2
20260502223633 50 209 4.0 5.0 0.00 0.00 0.00 40 1015.0
20260502223131 51 248 4.0 7.0 0.00 0.00 0.00 41 1015.2
20260502222629 52 96 1.0 2.0 0.00 0.00 0.00 37 1015.3
20260502222125 51 303 0.0 0.0 0.00 0.00 0.00 38 1015.2
20260502221620 49 258 0.0 0.0 0.00 0.00 0.00 42 1015.3
20260502221118 48 331 0.0 0.0 0.00 0.00 0.00 42 1015.4
20260502220615 48 295 3.0 3.0 0.00 0.00 0.00 40 1015.3
20260502220111 49 206 2.0 2.0 0.00 0.00 0.00 40 1015.6
20260502215608 49 331 1.0 1.0 0.00 0.00 0.00 42 1015.3
20260502215105 49 286 4.0 7.0 0.00 0.00 0.00 42 1015.6
20260502214601 49 110 1.0 2.0 0.00 0.00 0.00 39 1015.4
20260502214059 49 268 3.0 3.0 0.00 0.00 0.00 42 1015.4
20260502213556 49 17 0.0 1.0 0.00 0.00 0.00 40 1015.6
20260502213053 49 252 3.0 5.0 0.00 0.00 0.00 40 1015.4
20260502212552 48 246 0.0 0.0 0.00 0.00 0.00 40 1015.5
20260502212050 48 271 0.0 1.0 0.00 0.00 0.00 41 1015.5
20260502211545 49 282 1.0 1.0 0.00 0.00 0.00 40 1015.4
20260502211043 49 227 6.0 9.0 0.00 0.00 0.00 39 1015.6
20260502210539 49 281 5.0 7.0 0.00 0.00 0.00 39 1015.6
20260502210036 49 231 2.0 5.0 0.00 0.00 0.00 39 1015.7
20260502205533 48 296 1.0 2.0 0.00 0.00 0.00 40 1015.8
20260502205030 49 317 3.0 3.0 0.00 0.00 0.00 38 1015.8
20260502204527 49 280 0.0 1.0 0.00 0.00 0.00 40 1015.7
20260502204025 50 282 1.0 1.0 0.00 0.00 0.00 38 1015.7
20260502203521 50 331 5.0 9.0 0.00 0.00 0.00 38 1015.8
20260502203018 50 220 4.0 7.0 0.00 0.00 0.00 38 1015.8
20260502202514 50 36 3.0 3.0 0.00 0.00 0.00 38 1016.0
20260502202013 49 279 0.0 1.0 0.00 0.00 0.00 41 1016.0
20260502201509 49 330 3.0 5.0 0.00 0.00 0.00 39 1015.8
20260502201005 49 318 1.0 2.0 0.00 0.00 0.00 39 1015.9
20260502200501 50 209 6.0 7.0 0.00 0.00 0.00 39 1016.1
20260502195959 49 287 3.0 5.0 0.00 0.00 0.00 40 1016.1
20260502195456 48 247 2.0 2.0 0.00 0.00 0.00 42 1016.2
20260502194952 48 279 4.0 5.0 0.00 0.00 0.00 40 1016.3
20260502194449 49 281 2.0 2.0 0.00 0.00 0.00 40 1016.5
20260502193945 49 196 0.0 0.0 0.00 0.00 0.00 41 1016.4
20260502193443 48 287 2.0 2.0 0.00 0.00 0.00 40 1016.6
20260502192938 50 227 7.0 8.0 0.00 0.00 0.00 39 1016.5
20260502192435 48 275 1.0 2.0 0.00 0.00 0.00 43 1016.5
20260502191932 48 208 5.0 8.0 0.00 0.00 0.00 41 1016.6
20260502191430 48 201 4.0 6.0 0.00 0.00 0.00 43 1016.7
20260502190927 48 331 1.0 1.0 0.00 0.00 0.00 41 1016.4
20260502190424 48 1 0.0 0.0 0.00 0.00 0.00 42 1016.7
20260502185920 47 345 4.0 6.0 0.00 0.00 0.00 42 1016.8
20260502185416 47 290 2.0 5.0 0.00 0.00 0.00 44 1016.9
20260502184913 47 334 0.0 0.0 0.00 0.00 0.00 44 1017.0
20260502184409 47 287 3.0 3.0 0.00 0.00 0.00 45 1016.9
20260502183905 48 268 5.0 7.0 0.00 0.00 0.00 44 1016.7
20260502183401 48 277 3.0 7.0 0.00 0.00 0.00 44 1016.8
20260502182857 48 250 2.0 2.0 0.00 0.00 0.00 45 1017.1
20260502182353 48 246 3.0 5.0 0.00 0.00 0.00 43 1016.9
20260502181849 48 34 4.0 5.0 0.00 0.00 0.00 42 1017.0
20260502181348 47 327 3.0 7.0 0.00 0.00 0.00 46 1017.2
20260502180845 48 330 1.0 2.0 0.00 0.00 0.00 47 1017.2
20260502180342 47 220 9.0 13.0 0.00 0.00 0.00 46 1017.2
20260502170301 44 295 1.0 2.0 0.00 0.00 0.00 51 1017.8
20260502164249 46 278 8.0 10.0 0.00 0.00 0.00 53 1018.1
20260502163744 46 292 1.0 2.0 0.00 0.00 0.00 53 1017.9
20260502163241 44 319 1.0 1.0 0.00 0.00 0.00 56 1018.0
20260502162738 44 0 0.0 0.0 0.00 0.00 0.00 56 1017.9
20260502162235 45 291 3.0 5.0 0.00 0.00 0.00 54 1018.0
20260502161732 46 329 3.0 5.0 0.00 0.00 0.00 52 1018.0
20260502161228 45 331 3.0 3.0 0.00 0.00 0.00 52 1018.1
20260502160726 44 267 2.0 2.0 0.00 0.00 0.00 54 1018.0
20260502160225 44 308 4.0 7.0 0.00 0.00 0.00 55 1018.1
20260502152149 43 314 2.0 3.0 0.00 0.00 0.00 53 1018.1
20260502151647 43 334 8.0 10.0 0.00 0.00 0.00 55 1018.3
20260502151144 44 355 3.0 3.0 0.00 0.00 0.00 53 1018.1
20260502150641 42 293 1.0 2.0 0.00 0.00 0.00 54 1018.4
20260502150137 42 341 2.0 2.0 0.00 0.00 0.00 56 1018.1
20260502130526 40 300 1.0 2.0 0.00 0.00 0.00 73 1018.5
20260502123509 38 303 2.0 3.0 0.00 0.00 0.00 78 1018.6
20260502123005 39 249 3.0 5.0 0.00 0.00 0.00 77 1018.5
20260502122502 38 34 2.0 2.0 0.00 0.00 0.00 78 1018.6
20260502122000 38 325 4.0 6.0 0.00 0.00 0.00 79 1018.6
20260502121457 37 347 2.0 2.0 0.00 0.00 0.00 79 1018.7
20260502120954 37 303 1.0 1.0 0.00 0.00 0.00 79 1018.5
20260502120450 37 39 2.0 2.0 0.00 0.00 0.00 80 1018.5
20260502115445 36 313 2.0 5.0 0.00 0.00 0.00 81 1018.6
20260502114941 36 339 1.0 1.0 0.00 0.00 0.00 82 1018.4
20260502114437 36 40 1.0 1.0 0.00 0.00 0.00 82 1018.6
20260502113935 35 304 2.0 2.0 0.00 0.00 0.00 83 1018.6
20260502113432 35 309 5.0 6.0 0.00 0.00 0.00 83 1018.5
20260502112931 35 279 1.0 1.0 0.00 0.00 0.00 84 1018.4
20260502112428 35 311 0.0 0.0 0.00 0.00 0.00 85 1018.5
20260502111926 34 307 3.0 3.0 0.00 0.00 0.00 88 1018.4
20260502111422 33 305 0.0 0.0 0.00 0.00 0.00 89 1018.2
20260502110920 33 284 0.0 0.0 0.00 0.00 0.00 90 1018.4
20260502110418 33 289 0.0 0.0 0.00 0.00 0.00 90 1018.4
20260502105915 33 303 1.0 1.0 0.00 0.00 0.00 91 1018.5
20260502105412 32 292 0.0 0.0 0.00 0.00 0.00 91 1018.3
20260502104909 33 310 0.0 0.0 0.00 0.00 0.00 91 1018.3
20260502104407 33 314 1.0 2.0 0.00 0.00 0.00 92 1018.0
20260502103904 32 317 2.0 2.0 0.00 0.00 0.00 94 1018.2
20260502103402 32 281 0.0 0.0 0.00 0.00 0.00 94 1017.9
20260502102858 32 297 0.0 0.0 0.00 0.00 0.00 94 1018.2
20260502102355 32 303 0.0 0.0 0.00 0.00 0.00 95 1018.0
20260502101852 33 304 0.0 0.0 0.00 0.00 0.00 94 1018.0
20260502101350 33 311 0.0 0.0 0.00 0.00 0.00 94 1018.0
20260502100848 33 328 0.0 0.0 0.00 0.00 0.00 94 1018.1
20260502100348 33 331 0.0 0.0 0.00 0.00 0.00 94 1017.9
20260502091321 34 307 0.0 0.0 0.00 0.00 0.00 96 1017.7
20260502090819 34 324 1.0 1.0 0.00 0.00 0.00 97 1017.6
20260502090315 34 274 1.0 1.0 0.00 0.00 0.00 98 1017.8
20260502071211 36 315 0.0 0.0 0.00 0.00 0.00 93 1017.2
20260502070709 37 315 0.0 0.0 0.00 0.00 0.00 93 1017.4
20260502070206 37 312 0.0 0.0 0.00 0.00 0.00 92 1017.5
20260502065704 37 315 0.0 0.0 0.00 0.00 0.00 91 1017.5
20260502065202 37 328 0.0 0.0 0.00 0.00 0.00 91 1017.5
20260502064701 37 312 0.0 0.0 0.00 0.00 0.00 91 1017.5
20260502064157 37 313 0.0 0.0 0.00 0.00 0.00 90 1017.5
20260502063655 37 334 0.0 0.0 0.00 0.00 0.00 90 1017.2
20260502063153 37 334 0.0 0.0 0.00 0.00 0.00 89 1017.7
20260502062649 37 11 0.0 0.0 0.00 0.00 0.00 90 1017.6
20260502062147 37 347 0.0 0.0 0.00 0.00 0.00 89 1017.5
20260502061645 37 310 0.0 0.0 0.00 0.00 0.00 89 1017.6
20260502061142 37 16 0.0 0.0 0.00 0.00 0.00 89 1017.5
20260502060643 37 16 0.0 0.0 0.00 0.00 0.00 90 1017.7
20260502060140 37 336 0.0 0.0 0.00 0.00 0.00 90 1017.8
20260502055637 37 316 0.0 0.0 0.00 0.00 0.00 89 1017.5
20260502055135 38 308 0.0 0.0 0.00 0.00 0.00 89 1017.6
20260502054634 38 88 0.0 0.0 0.00 0.00 0.00 89 1017.5
20260502054131 37 57 0.0 0.0 0.00 0.00 0.00 89 1017.5
20260502053628 37 315 0.0 0.0 0.00 0.00 0.00 89 1017.8
20260502053125 38 316 0.0 0.0 0.00 0.00 0.00 88 1017.5
20260502052623 38 105 0.0 0.0 0.00 0.00 0.00 88 1017.6
20260502052122 38 88 0.0 0.0 0.00 0.00 0.00 88 1017.5
20260502051619 38 118 2.0 2.0 0.00 0.00 0.00 88 1017.5
20260502051117 38 322 0.0 0.0 0.00 0.00 0.00 87 1017.8
20260502050614 38 46 0.0 1.0 0.00 0.00 0.00 87 1017.5
20260502050110 38 72 0.0 0.0 0.00 0.00 0.00 87 1017.6
20260502045606 38 66 3.0 3.0 0.00 0.00 0.00 87 1017.2
20260502045104 38 61 3.0 5.0 0.00 0.00 0.00 87 1017.5
20260502044600 38 73 3.0 3.0 0.00 0.00 0.00 87 1017.4
20260502044057 38 68 1.0 2.0 0.00 0.00 0.00 87 1017.2
20260502043555 38 65 1.0 2.0 0.00 0.00 0.00 86 1017.2
20260502043050 38 52 1.0 2.0 0.00 0.00 0.00 86 1017.4
20260502042545 38 37 1.0 2.0 0.00 0.00 0.00 86 1017.2
20260502042043 38 39 1.0 1.0 0.00 0.00 0.00 86 1017.0
20260502041541 39 69 1.0 1.0 0.00 0.00 0.00 85 1017.4
20260502041038 39 81 2.0 3.0 0.00 0.00 0.00 86 1017.1
20260502040534 39 75 1.0 2.0 0.00 0.00 0.00 86 1017.1
20260502040031 39 67 0.0 0.0 0.00 0.00 0.00 86 1017.1
20260502035527 39 136 0.0 1.0 0.00 0.00 0.00 86 1017.0
20260502035025 39 87 1.0 2.0 0.00 0.00 0.00 86 1017.0
20260502034523 39 58 1.0 1.0 0.00 0.00 0.00 85 1016.8
20260502034021 40 57 3.0 5.0 0.00 0.00 0.00 82 1016.8
20260502033519 40 51 1.0 1.0 0.00 0.00 0.00 80 1016.8
20260502033016 40 25 1.0 2.0 0.00 0.00 0.00 77 1016.8
20260502032511 41 50 3.0 3.0 0.00 0.00 0.00 73 1016.8
20260502032009 41 17 2.0 2.0 0.00 0.00 0.00 67 1016.5
20260502031507 41 355 0.0 0.0 0.00 0.00 0.00 64 1016.8
20260502031004 41 325 0.0 0.0 0.00 0.00 0.00 63 1016.5
20260502030503 41 312 2.0 3.0 0.00 0.00 0.00 61 1016.4
20260502030000 41 39 0.0 0.0 0.00 0.00 0.00 62 1016.5
20260502025457 41 317 0.0 0.0 0.00 0.00 0.00 61 1016.8
20260502024955 41 351 0.0 0.0 0.00 0.00 0.00 61 1016.4
20260502024452 41 328 1.0 2.0 0.00 0.00 0.00 61 1016.5
20260502023951 41 307 3.0 3.0 0.00 0.00 0.00 60 1016.5
20260502023448 41 321 0.0 0.0 0.00 0.00 0.00 60 1016.5
20260502022945 41 354 0.0 0.0 0.00 0.00 0.00 60 1016.5
20260502022441 42 280 1.0 2.0 0.00 0.00 0.00 60 1016.5
20260502021938 42 332 2.0 3.0 0.00 0.00 0.00 60 1016.6
20260502021436 42 299 4.0 6.0 0.00 0.00 0.00 61 1016.6
20260502020933 42 331 0.0 0.0 0.00 0.00 0.00 61 1016.3
20260502020431 42 330 1.0 2.0 0.00 0.00 0.00 60 1016.3
20260502015927 42 310 0.0 0.0 0.00 0.00 0.00 61 1016.5
20260502015425 41 299 3.0 5.0 0.00 0.00 0.00 63 1016.3
20260502014921 41 309 0.0 0.0 0.00 0.00 0.00 66 1016.0
20260502014419 41 340 0.0 0.0 0.00 0.00 0.00 65 1016.3
20260502013915 41 328 0.0 0.0 0.00 0.00 0.00 65 1016.2
20260502013410 41 314 0.0 0.0 0.00 0.00 0.00 66 1015.9
20260502012907 41 312 0.0 0.0 0.00 0.00 0.00 65 1016.0
20260502012405 42 332 0.0 0.0 0.00 0.00 0.00 64 1016.0
20260502011902 42 326 2.0 3.0 0.00 0.00 0.00 64 1016.0
20260502011358 42 359 0.0 2.0 0.00 0.00 0.00 63 1015.9
20260502010855 42 22 3.0 5.0 0.00 0.00 0.00 63 1016.0
20260502010352 42 318 0.0 0.0 0.00 0.00 0.00 63 1015.9